SWA3507 KMSY-KMCO

Flight info

Callsign SWA3507
Flight time 1h 18m
Altitude 39000
Route REDFN Y280 CHRGE PRICY5
Aircraft B737/M-SDE2E3FGHIRWXY/LB1

Departure

Time 2026-04-26 01:23
Airport Louis Armstrong New Orleans International Airport (KMSY)

Arrival

Time 2026-04-26 02:41
Airport Orlando International Airport (KMCO)
Time Latitude Longitude Altitude Speed Heading
2026-04-26 00:32 29.99432 -90.25619 6 ft 0 kts 271°
2026-04-26 01:10 29.99432 -90.25599 6 ft 4 kts 271°
2026-04-26 01:10 29.99431 -90.25574 6 ft 4 kts 268°
2026-04-26 01:10 29.99438 -90.25551 7 ft 4 kts 195°
2026-04-26 01:11 29.99460 -90.25548 7 ft 1 kts 183°
2026-04-26 01:15 29.99457 -90.25548 7 ft 2 kts 183°
2026-04-26 01:15 29.99416 -90.25550 8 ft 10 kts 183°
2026-04-26 01:15 29.99343 -90.25555 5 ft 11 kts 183°
2026-04-26 01:15 29.99271 -90.25556 5 ft 10 kts 173°
2026-04-26 01:16 29.99216 -90.25509 6 ft 10 kts 119°
2026-04-26 01:16 29.99201 -90.25431 7 ft 10 kts 92°
2026-04-26 01:16 29.99198 -90.25354 6 ft 10 kts 93°
2026-04-26 01:16 29.99194 -90.25278 6 ft 9 kts 94°
2026-04-26 01:17 29.99189 -90.25204 7 ft 9 kts 95°
2026-04-26 01:17 29.99184 -90.25133 7 ft 9 kts 94°
2026-04-26 01:17 29.99193 -90.25065 10 ft 9 kts 63°
2026-04-26 01:17 29.99242 -90.25031 10 ft 8 kts 14°
2026-04-26 01:18 29.99297 -90.25015 10 ft 8 kts 15°
2026-04-26 01:18 29.99350 -90.24998 10 ft 8 kts 15°
2026-04-26 01:18 29.99402 -90.24981 10 ft 8 kts 15°
2026-04-26 01:18 29.99453 -90.24965 11 ft 7 kts 15°
2026-04-26 01:19 29.99501 -90.24950 13 ft 7 kts 15°
2026-04-26 01:19 29.99548 -90.24935 14 ft 7 kts 15°
2026-04-26 01:19 29.99596 -90.24920 14 ft 8 kts 15°
2026-04-26 01:19 29.99668 -90.24896 12 ft 14 kts 15°
2026-04-26 01:20 29.99780 -90.24862 10 ft 16 kts 14°
2026-04-26 01:20 29.99886 -90.24829 9 ft 16 kts 15°
2026-04-26 01:20 29.99988 -90.24796 6 ft 15 kts 15°
2026-04-26 01:20 30.00086 -90.24765 5 ft 14 kts 15°
2026-04-26 01:21 30.00180 -90.24735 6 ft 14 kts 15°
2026-04-26 01:21 30.00269 -90.24705 6 ft 13 kts 21°
2026-04-26 01:21 30.00312 -90.24623 6 ft 12 kts 96°
2026-04-26 01:21 30.00296 -90.24565 7 ft 2 kts 114°
2026-04-26 01:22 30.00284 -90.24560 6 ft 2 kts 174°
2026-04-26 01:22 30.00253 -90.24568 6 ft 11 kts 194°
2026-04-26 01:22 30.00028 -90.24640 6 ft 77 kts 195°
2026-04-26 01:22 29.99206 -90.24893 52 ft 160 kts 195°
2026-04-26 01:23 29.98101 -90.25271 1024 ft 164 kts 198°
2026-04-26 01:23 29.97026 -90.25616 2257 ft 164 kts 197°
2026-04-26 01:23 29.95790 -90.25975 2771 ft 203 kts 195°
2026-04-26 01:23 29.94281 -90.26347 3164 ft 236 kts 184°
2026-04-26 01:24 29.92690 -90.25812 3971 ft 248 kts 144°
2026-04-26 01:24 29.91523 -90.24332 4780 ft 263 kts 127°
2026-04-26 01:24 29.90426 -90.22546 5565 ft 279 kts 125°
2026-04-26 01:24 29.89313 -90.20689 6674 ft 284 kts 125°
2026-04-26 01:25 29.88167 -90.18805 7752 ft 289 kts 126°
2026-04-26 01:25 29.86982 -90.16900 8777 ft 296 kts 126°
2026-04-26 01:25 29.85750 -90.14955 9797 ft 303 kts 127°
2026-04-26 01:25 29.84480 -90.12978 10605 ft 316 kts 127°
2026-04-26 01:26 29.83103 -90.10859 10928 ft 345 kts 128°
2026-04-26 01:26 29.81632 -90.08613 11625 ft 357 kts 128°
2026-04-26 01:26 29.80119 -90.06314 12506 ft 363 kts 128°
2026-04-26 01:26 29.78580 -90.03983 13421 ft 368 kts 128°
2026-04-26 01:27 29.77013 -90.01617 14242 ft 374 kts 128°
2026-04-26 01:27 29.75422 -89.99219 15002 ft 381 kts 128°
2026-04-26 01:27 29.73797 -89.96773 15784 ft 388 kts 128°
2026-04-26 01:27 29.72147 -89.94293 16568 ft 394 kts 128°
2026-04-26 01:28 29.70467 -89.91769 17341 ft 400 kts 127°
2026-04-26 01:28 29.68759 -89.89204 18098 ft 407 kts 127°
2026-04-26 01:28 29.67024 -89.86601 18794 ft 413 kts 128°
2026-04-26 01:28 29.65288 -89.83999 19507 ft 417 kts 128°
2026-04-26 01:29 29.63513 -89.81340 20234 ft 421 kts 128°
2026-04-26 01:29 29.61716 -89.78649 20941 ft 426 kts 128°
2026-04-26 01:29 29.59895 -89.75926 21625 ft 431 kts 129°
2026-04-26 01:29 29.58054 -89.73174 22285 ft 436 kts 129°
2026-04-26 01:30 29.56191 -89.70392 22944 ft 442 kts 129°
2026-04-26 01:30 29.54310 -89.67582 23579 ft 446 kts 129°
2026-04-26 01:30 29.52406 -89.64743 24120 ft 451 kts 129°
2026-04-26 01:30 29.50479 -89.61868 24671 ft 455 kts 129°
2026-04-26 01:31 29.48542 -89.58983 25206 ft 460 kts 129°
2026-04-26 01:31 29.46596 -89.56086 25725 ft 464 kts 129°
2026-04-26 01:31 29.44616 -89.53138 26250 ft 468 kts 129°
2026-04-26 01:31 29.42617 -89.50166 26764 ft 472 kts 129°
2026-04-26 01:32 29.40599 -89.47167 27266 ft 476 kts 129°
2026-04-26 01:32 29.38571 -89.44156 27753 ft 480 kts 129°
2026-04-26 01:32 29.36515 -89.41106 28235 ft 485 kts 129°
2026-04-26 01:32 29.34442 -89.38032 28709 ft 488 kts 129°
2026-04-26 01:33 29.32351 -89.34935 29188 ft 492 kts 129°
2026-04-26 01:33 29.30247 -89.31820 29649 ft 496 kts 129°
2026-04-26 01:33 29.28125 -89.28681 30068 ft 500 kts 129°
2026-04-26 01:33 29.26011 -89.25557 30428 ft 503 kts 129°
2026-04-26 01:34 29.23861 -89.22381 30779 ft 507 kts 129°
2026-04-26 01:34 29.21688 -89.19174 31122 ft 510 kts 129°
2026-04-26 01:34 29.19503 -89.15953 31453 ft 514 kts 129°
2026-04-26 01:34 29.17300 -89.12705 31781 ft 517 kts 129°
2026-04-26 01:35 29.15091 -89.09454 32093 ft 520 kts 129°
2026-04-26 01:35 29.12865 -89.06179 32436 ft 521 kts 129°
2026-04-26 01:35 29.10636 -89.02901 32853 ft 521 kts 129°
2026-04-26 01:35 29.08407 -88.99626 33303 ft 520 kts 129°
2026-04-26 01:36 29.06211 -88.96402 33697 ft 521 kts 129°
2026-04-26 01:36 29.03980 -88.93129 34035 ft 521 kts 129°
2026-04-26 01:36 29.01752 -88.89864 34350 ft 522 kts 129°
2026-04-26 01:37 28.97280 -88.83318 35019 ft 521 kts 129°
2026-04-26 01:37 28.95048 -88.80053 35329 ft 522 kts 129°
2026-04-26 01:37 28.92807 -88.76778 35633 ft 522 kts 129°
2026-04-26 01:37 28.90578 -88.73503 35938 ft 522 kts 127°
2026-04-26 01:38 28.88615 -88.70010 36220 ft 523 kts 118°
2026-04-26 01:38 28.87087 -88.66311 36519 ft 522 kts 108°
2026-04-26 01:38 28.85963 -88.62383 36839 ft 520 kts 105°
2026-04-26 01:38 28.84907 -88.58385 37150 ft 520 kts 104°
2026-04-26 01:39 28.83887 -88.54480 37435 ft 520 kts 104°
2026-04-26 01:39 28.82843 -88.50538 37739 ft 520 kts 104°
2026-04-26 01:39 28.81776 -88.46591 38031 ft 519 kts 105°
2026-04-26 01:39 28.80695 -88.42659 38398 ft 518 kts 105°
2026-04-26 01:40 28.79609 -88.38753 38714 ft 516 kts 105°
2026-04-26 01:40 28.78534 -88.34899 38936 ft 516 kts 105°
2026-04-26 01:40 28.77441 -88.30985 38911 ft 519 kts 105°
2026-04-26 01:41 28.75257 -88.23164 38917 ft 516 kts 105°
2026-04-26 01:41 28.73084 -88.15385 38922 ft 514 kts 105°
2026-04-26 01:42 28.70911 -88.07628 38929 ft 514 kts 105°
2026-04-26 01:42 28.68720 -87.99852 38928 ft 515 kts 105°
2026-04-26 01:43 28.66537 -87.92128 38924 ft 515 kts 105°
2026-04-26 01:43 28.64335 -87.84354 38926 ft 516 kts 105°
2026-04-26 01:44 28.62132 -87.76589 38925 ft 515 kts 105°
2026-04-26 01:44 28.59923 -87.68822 38927 ft 515 kts 105°
2026-04-26 01:45 28.57713 -87.61069 38926 ft 514 kts 105°
2026-04-26 01:45 28.55504 -87.53340 38925 ft 512 kts 105°
2026-04-26 01:46 28.53300 -87.45647 38930 ft 511 kts 105°
2026-04-26 01:46 28.51469 -87.39268 38930 ft 510 kts 105°
2026-04-26 01:47 28.48907 -87.30368 38930 ft 509 kts 105°
2026-04-26 01:47 28.47061 -87.23965 38932 ft 509 kts 105°
2026-04-26 01:48 28.44867 -87.16377 38930 ft 508 kts 106°
2026-04-26 01:48 28.42653 -87.08735 38931 ft 509 kts 106°
2026-04-26 01:49 28.40434 -87.01092 38934 ft 509 kts 106°
2026-04-26 01:49 28.38208 -86.93445 38934 ft 510 kts 106°
2026-04-26 01:50 28.35991 -86.85845 38938 ft 510 kts 106°
2026-04-26 01:50 28.33751 -86.78184 38935 ft 511 kts 106°
2026-04-26 01:51 28.31507 -86.70527 38932 ft 511 kts 106°
2026-04-26 01:51 28.29265 -86.62864 38934 ft 512 kts 106°
2026-04-26 01:52 28.27023 -86.55195 38939 ft 512 kts 106°
2026-04-26 01:52 28.24781 -86.47542 38931 ft 512 kts 106°
2026-04-26 01:53 28.22532 -86.39885 38940 ft 511 kts 106°
2026-04-26 01:53 28.20297 -86.32297 38933 ft 510 kts 106°
2026-04-26 01:54 28.18045 -86.24666 38930 ft 509 kts 106°
2026-04-26 01:54 28.15801 -86.17083 38935 ft 507 kts 106°
2026-04-26 01:55 28.13555 -86.09508 38927 ft 506 kts 106°
2026-04-26 01:55 28.11305 -86.01935 38929 ft 505 kts 106°
2026-04-26 01:56 28.09064 -85.94410 38939 ft 504 kts 106°
2026-04-26 01:56 28.06833 -85.86936 38938 ft 502 kts 106°
2026-04-26 01:57 28.04594 -85.79453 38933 ft 501 kts 106°
2026-04-26 01:57 28.02356 -85.71988 38935 ft 500 kts 106°
2026-04-26 01:58 28.00114 -85.64529 38937 ft 499 kts 106°
2026-04-26 01:58 27.97876 -85.57094 38938 ft 499 kts 107°
2026-04-26 01:59 27.95649 -85.49717 38930 ft 498 kts 107°
2026-04-26 01:59 27.93409 -85.42310 38937 ft 497 kts 107°
2026-04-26 02:00 27.91169 -85.34917 38940 ft 497 kts 107°
2026-04-26 02:00 27.88924 -85.27523 38937 ft 496 kts 107°
2026-04-26 02:01 27.87305 -85.20025 38956 ft 493 kts 97°
2026-04-26 02:01 27.86098 -85.12391 38945 ft 493 kts 97°
2026-04-26 02:02 27.84863 -85.04775 38944 ft 491 kts 98°
2026-04-26 02:02 27.83586 -84.97208 38943 ft 490 kts 98°
2026-04-26 02:03 27.82297 -84.89641 38941 ft 489 kts 98°
2026-04-26 02:03 27.81155 -84.82127 38928 ft 485 kts 87°
2026-04-26 02:04 27.81476 -84.74564 38946 ft 484 kts 82°
2026-04-26 02:04 27.81955 -84.66898 38951 ft 492 kts 82°
2026-04-26 02:05 27.82372 -84.59187 38949 ft 492 kts 83°
2026-04-26 02:05 27.82741 -84.51452 38952 ft 493 kts 83°
2026-04-26 02:06 27.83097 -84.43732 38947 ft 492 kts 83°
2026-04-26 02:06 27.83450 -84.36044 38947 ft 491 kts 84°
2026-04-26 02:07 27.83802 -84.28348 38947 ft 490 kts 84°
2026-04-26 02:07 27.84150 -84.20652 38948 ft 489 kts 84°
2026-04-26 02:08 27.84493 -84.12985 38951 ft 488 kts 84°
2026-04-26 02:08 27.84830 -84.05335 38908 ft 488 kts 84°
2026-04-26 02:08 27.84998 -84.01514 38291 ft 495 kts 84°
2026-04-26 02:09 27.85167 -83.97636 37647 ft 492 kts 84°
2026-04-26 02:09 27.85332 -83.93780 36961 ft 491 kts 85°
2026-04-26 02:09 27.85497 -83.89935 36281 ft 490 kts 85°
2026-04-26 02:09 27.85659 -83.86096 35603 ft 488 kts 85°
2026-04-26 02:10 27.85820 -83.82249 34800 ft 490 kts 86°
2026-04-26 02:10 27.85980 -83.78391 33968 ft 492 kts 86°
2026-04-26 02:10 27.86141 -83.74514 32974 ft 495 kts 86°
2026-04-26 02:10 27.86300 -83.70623 32023 ft 496 kts 86°
2026-04-26 02:11 27.86458 -83.66736 31328 ft 492 kts 86°
2026-04-26 02:11 27.86612 -83.62894 30676 ft 487 kts 86°
2026-04-26 02:11 27.86765 -83.59079 30034 ft 482 kts 87°
2026-04-26 02:11 27.86915 -83.55309 29290 ft 477 kts 86°
2026-04-26 02:12 27.87062 -83.51589 28584 ft 472 kts 86°
2026-04-26 02:12 27.87206 -83.47912 27917 ft 466 kts 86°
2026-04-26 02:12 27.87348 -83.44273 27250 ft 461 kts 86°
2026-04-26 02:12 27.87488 -83.40676 26594 ft 456 kts 86°
2026-04-26 02:13 27.87624 -83.37144 25956 ft 452 kts 85°
2026-04-26 02:13 27.87760 -83.33618 25316 ft 448 kts 85°
2026-04-26 02:13 27.87894 -83.30115 24657 ft 445 kts 85°
2026-04-26 02:13 27.88026 -83.26628 24016 ft 442 kts 85°
2026-04-26 02:14 27.88103 -83.23205 23842 ft 432 kts 86°
2026-04-26 02:14 27.88114 -83.19813 23645 ft 430 kts 87°
2026-04-26 02:14 27.88101 -83.16422 23470 ft 432 kts 87°
2026-04-26 02:14 27.88087 -83.13018 23278 ft 433 kts 87°
2026-04-26 02:15 27.88076 -83.09621 23085 ft 432 kts 87°
2026-04-26 02:15 27.88072 -83.06224 22903 ft 431 kts 87°
2026-04-26 02:15 27.88071 -83.03985 22789 ft 430 kts 87°
2026-04-26 02:15 27.88071 -83.02595 22718 ft 429 kts 87°
2026-04-26 02:16 27.88073 -82.99225 22546 ft 427 kts 87°
2026-04-26 02:16 27.88074 -82.95875 22374 ft 426 kts 87°
2026-04-26 02:16 27.88076 -82.92537 22206 ft 424 kts 87°
2026-04-26 02:16 27.88077 -82.89206 22041 ft 422 kts 87°
2026-04-26 02:17 27.88076 -82.85888 21876 ft 421 kts 87°
2026-04-26 02:17 27.88075 -82.82592 21713 ft 419 kts 87°
2026-04-26 02:17 27.88073 -82.79305 21549 ft 418 kts 87°
2026-04-26 02:17 27.88070 -82.76008 21386 ft 417 kts 88°
2026-04-26 02:18 27.88067 -82.72772 21222 ft 416 kts 88°
2026-04-26 02:18 27.88063 -82.69516 21062 ft 414 kts 88°
2026-04-26 02:18 27.88055 -82.66265 20874 ft 414 kts 88°
2026-04-26 02:18 27.88019 -82.63008 20619 ft 412 kts 89°
2026-04-26 02:19 27.87967 -82.59783 20369 ft 409 kts 89°
2026-04-26 02:19 27.87912 -82.56578 20128 ft 407 kts 89°
2026-04-26 02:19 27.87860 -82.53382 19889 ft 405 kts 89°
2026-04-26 02:19 27.87810 -82.50207 19651 ft 404 kts 89°
2026-04-26 02:20 27.87762 -82.47042 19403 ft 403 kts 89°
2026-04-26 02:20 27.87713 -82.43880 19167 ft 402 kts 89°
2026-04-26 02:20 27.87889 -82.40789 18902 ft 397 kts 74°
2026-04-26 02:20 27.88821 -82.37894 18659 ft 390 kts 62°
2026-04-26 02:21 27.89948 -82.35104 18345 ft 388 kts 61°
2026-04-26 02:21 27.91091 -82.32354 18064 ft 384 kts 61°
2026-04-26 02:21 27.92221 -82.29633 17758 ft 380 kts 61°
2026-04-26 02:21 27.93331 -82.26929 17472 ft 377 kts 62°
2026-04-26 02:22 27.94422 -82.24243 17196 ft 375 kts 62°
2026-04-26 02:22 27.95507 -82.21554 16938 ft 375 kts 62°
2026-04-26 02:22 27.96576 -82.18892 16677 ft 378 kts 62°
2026-04-26 02:22 27.97662 -82.16181 16413 ft 376 kts 62°
2026-04-26 02:23 27.98736 -82.13492 16138 ft 374 kts 63°
2026-04-26 02:23 27.99804 -82.10815 15869 ft 372 kts 63°
2026-04-26 02:23 28.00866 -82.08153 15606 ft 371 kts 63°
2026-04-26 02:23 28.01925 -82.05498 15343 ft 369 kts 63°
2026-04-26 02:24 28.02981 -82.02849 15072 ft 368 kts 63°
2026-04-26 02:24 28.04031 -82.00215 14813 ft 367 kts 63°
2026-04-26 02:24 28.05082 -81.97574 14547 ft 366 kts 63°
2026-04-26 02:24 28.06130 -81.94959 14286 ft 364 kts 62°
2026-04-26 02:25 28.07189 -81.92358 14026 ft 363 kts 62°
2026-04-26 02:25 28.08246 -81.89768 13776 ft 361 kts 62°
2026-04-26 02:25 28.09316 -81.87201 13485 ft 359 kts 60°
2026-04-26 02:25 28.10471 -81.84703 13207 ft 357 kts 59°
2026-04-26 02:26 28.11642 -81.82233 12945 ft 355 kts 59°
2026-04-26 02:26 28.12803 -81.79768 12683 ft 353 kts 59°
2026-04-26 02:26 28.13946 -81.77328 12419 ft 346 kts 59°
2026-04-26 02:26 28.15052 -81.74960 12162 ft 334 kts 60°
2026-04-26 02:27 28.16118 -81.72673 11934 ft 324 kts 60°
2026-04-26 02:27 28.17142 -81.70473 11700 ft 315 kts 60°
2026-04-26 02:27 28.18160 -81.68290 11472 ft 311 kts 60°
2026-04-26 02:27 28.19169 -81.66125 11268 ft 310 kts 60°
2026-04-26 02:28 28.20176 -81.63963 11048 ft 311 kts 60°
2026-04-26 02:28 28.21185 -81.61794 10825 ft 311 kts 60°
2026-04-26 02:28 28.22191 -81.59632 10606 ft 311 kts 60°
2026-04-26 02:28 28.23201 -81.57458 10379 ft 310 kts 60°
2026-04-26 02:29 28.24207 -81.55292 10156 ft 310 kts 60°
2026-04-26 02:29 28.25254 -81.53154 9934 ft 309 kts 55°
2026-04-26 02:29 28.26480 -81.51206 9670 ft 305 kts 51°
2026-04-26 02:29 28.27759 -81.49299 9408 ft 301 kts 51°
2026-04-26 02:30 28.29014 -81.47405 9174 ft 300 kts 52°
2026-04-26 02:30 28.30257 -81.45502 8927 ft 299 kts 52°
2026-04-26 02:30 28.31584 -81.43688 8670 ft 296 kts 38°
2026-04-26 02:30 28.33370 -81.42603 8461 ft 290 kts 14°
2026-04-26 02:31 28.35353 -81.42345 8258 ft 287 kts 358°
2026-04-26 02:31 28.37353 -81.42347 8028 ft 288 kts 356°
2026-04-26 02:31 28.39363 -81.42378 7752 ft 290 kts 357°
2026-04-26 02:31 28.41387 -81.42397 7479 ft 290 kts 358°
2026-04-26 02:32 28.43367 -81.42408 7205 ft 286 kts 358°
2026-04-26 02:32 28.45343 -81.42414 6929 ft 282 kts 358°
2026-04-26 02:32 28.47315 -81.42416 6663 ft 283 kts 358°
2026-04-26 02:32 28.49285 -81.42416 6365 ft 284 kts 358°
2026-04-26 02:33 28.51267 -81.42415 6102 ft 283 kts 358°
2026-04-26 02:33 28.52567 -81.42403 6027 ft 281 kts 359°
2026-04-26 02:33 28.54523 -81.42377 5987 ft 280 kts 359°
2026-04-26 02:33 28.56453 -81.42347 5787 ft 275 kts 359°
2026-04-26 02:34 28.58991 -81.42307 5197 ft 276 kts 359°
2026-04-26 02:34 28.60907 -81.42283 4825 ft 274 kts 359°
2026-04-26 02:34 28.62192 -81.42245 4558 ft 273 kts
2026-04-26 02:34 28.63971 -81.41582 4157 ft 275 kts 33°
2026-04-26 02:35 28.65173 -81.39943 3900 ft 269 kts 69°
2026-04-26 02:35 28.65377 -81.37910 3812 ft 254 kts 95°
2026-04-26 02:35 28.65315 -81.35947 3730 ft 243 kts 91°
2026-04-26 02:35 28.65301 -81.34059 3626 ft 234 kts 91°
2026-04-26 02:36 28.65284 -81.32234 3448 ft 229 kts 91°
2026-04-26 02:36 28.65079 -81.30450 3133 ft 228 kts 117°
2026-04-26 02:36 28.63997 -81.29211 3044 ft 222 kts 159°
2026-04-26 02:36 28.62506 -81.28788 3035 ft 217 kts 172°
2026-04-26 02:37 28.61060 -81.28556 2991 ft 201 kts 174°
2026-04-26 02:37 28.59724 -81.28436 2943 ft 185 kts 179°
2026-04-26 02:37 28.58461 -81.28403 2789 ft 180 kts 180°
2026-04-26 02:37 28.57208 -81.28388 2553 ft 179 kts 180°
2026-04-26 02:38 28.55978 -81.28376 2321 ft 178 kts 180°
2026-04-26 02:38 28.54749 -81.28364 2099 ft 176 kts 179°
2026-04-26 02:38 28.53535 -81.28351 1868 ft 172 kts 179°
2026-04-26 02:38 28.52354 -81.28339 1659 ft 167 kts 179°
2026-04-26 02:39 28.51222 -81.28328 1433 ft 158 kts 178°
2026-04-26 02:39 28.50172 -81.28317 1275 ft 141 kts 178°
2026-04-26 02:39 28.49231 -81.28309 1066 ft 130 kts 177°
2026-04-26 02:39 28.48325 -81.28298 908 ft 130 kts 177°
2026-04-26 02:40 28.47416 -81.28288 708 ft 132 kts 176°
2026-04-26 02:40 28.46488 -81.28282 542 ft 133 kts 178°
2026-04-26 02:40 28.45567 -81.28271 355 ft 135 kts 176°
2026-04-26 02:40 28.44620 -81.28258 202 ft 137 kts 179°
2026-04-26 02:41 28.43699 -81.28251 97 ft 119 kts 180°
2026-04-26 02:41 28.43021 -81.28243 97 ft 76 kts 180°
2026-04-26 02:41 28.42661 -81.28242 98 ft 33 kts 189°
2026-04-26 02:41 28.42561 -81.28288 97 ft 8 kts 212°
2026-04-26 02:42 28.42539 -81.28341 95 ft 8 kts 294°
2026-04-26 02:42 28.42589 -81.28363 96 ft 8 kts 357°
2026-04-26 02:42 28.42643 -81.28364 95 ft 8 kts 359°
2026-04-26 02:42 28.42695 -81.28365 95 ft 8 kts 359°
2026-04-26 02:43 28.42877 -81.28367 95 ft 17 kts 360°
2026-04-26 02:43 28.42998 -81.28369 95 ft 17 kts 359°
2026-04-26 02:43 28.43115 -81.28370 95 ft 16 kts 359°
2026-04-26 02:44 28.43228 -81.28372 94 ft 16 kts 359°
2026-04-26 02:44 28.43336 -81.28372 93 ft 15 kts 360°
2026-04-26 02:44 28.43439 -81.28373 95 ft 15 kts 359°
2026-04-26 02:44 28.43539 -81.28374 94 ft 14 kts 359°
2026-04-26 02:45 28.43634 -81.28375 94 ft 13 kts 360°
2026-04-26 02:45 28.43725 -81.28376 94 ft 13 kts 359°
2026-04-26 02:45 28.43813 -81.28377 96 ft 13 kts 360°
2026-04-26 02:45 28.43871 -81.28418 95 ft 12 kts 287°
2026-04-26 02:46 28.43874 -81.28531 99 ft 15 kts 269°
2026-04-26 02:46 28.43873 -81.28644 100 ft 14 kts 269°
2026-04-26 02:46 28.43872 -81.28752 106 ft 13 kts 269°
2026-04-26 02:46 28.43871 -81.28857 108 ft 14 kts 270°
2026-04-26 02:47 28.43871 -81.28974 106 ft 16 kts 270°
2026-04-26 02:47 28.43871 -81.29099 105 ft 16 kts 269°
2026-04-26 02:47 28.43852 -81.29239 96 ft 20 kts 232°
2026-04-26 02:47 28.43723 -81.29262 100 ft 19 kts 177°
2026-04-26 02:48 28.43591 -81.29265 98 ft 19 kts 200°
2026-04-26 02:48 28.43551 -81.29367 95 ft 15 kts 269°
2026-04-26 02:48 28.43550 -81.29486 97 ft 15 kts 269°
2026-04-26 02:48 28.43549 -81.29599 97 ft 14 kts 269°
2026-04-26 02:49 28.43548 -81.29708 94 ft 13 kts 269°
2026-04-26 02:49 28.43577 -81.29800 95 ft 13 kts 330°
2026-04-26 02:49 28.43677 -81.29809 94 ft 16 kts 359°
2026-04-26 02:49 28.43790 -81.29841 95 ft 18 kts 329°
2026-04-26 02:50 28.43875 -81.29940 96 ft 17 kts 298°
2026-04-26 02:50 28.43899 -81.30067 99 ft 16 kts 273°
2026-04-26 02:50 28.43867 -81.30165 97 ft 15 kts 201°
2026-04-26 02:50 28.43764 -81.30206 93 ft 16 kts 227°
2026-04-26 02:51 28.43698 -81.30302 93 ft 11 kts 231°
2026-04-26 02:51 28.43670 -81.30339 94 ft 6 kts 230°
2026-04-26 02:51 28.43633 -81.30346 95 ft 6 kts 162°
2026-04-26 02:51 28.43600 -81.30334 94 ft 2 kts 163°
2026-04-26 02:52 28.43593 -81.30332 97 ft 0 kts 163°